Location: Warner Observatory
(35.1353°N, 89.5455°W)
Time: 00:28:58
(UTC-05:00)

Amateur Radio Satellites - All Passes

Search period start: 05 May 2016 23:58
Search period end: 06 May 2016 23:58
Location: Warner Observatory, 35.1353°N, 89.5455°W

Satellite Date Start Highest point End Downlink Frequencies (MHz)
Time Altitude Azimuth
NANOSAT C BR1 06 May 00:05:41 00:09:42 43° 99° (E) 00:13:41 145.865
AISAT 06 May 00:09:13 00:13:35 56° 260° (W) 00:18:00 437.250
TISAT 1 06 May 00:09:18 00:11:06 12° 66° (ENE) 00:12:52 437.305
AIST 1 06 May 00:09:25 00:13:39 62° 94° (E) 00:17:58
50 SAT 06 May 00:11:17 00:14:43 38° 261° (W) 00:18:08 437.505
ANTELSAT 06 May 00:12:01 00:15:31 25° 290° (WNW) 00:18:59 437.575/2403.000
O/OREOS (USA 219) 06 May 00:31:06 00:35:37 74° 69° (ENE) 00:40:04 437.305
CUBEBUG 1 06 May 00:36:58 00:40:46 29° 263° (W) 00:44:36 437.445
ESTCUBE 1 06 May 00:43:34 00:46:37 18° 266° (W) 00:49:40 437.505/2401.250
DUCHIFAT 1 06 May 00:56:26 01:00:27 45° 286° (WNW) 01:04:26 145.980
UKube-1 06 May 00:58:51 01:02:11 22° 264° (W) 01:05:33 .
DX 1 06 May 00:59:18 01:02:17 18° 265° (W) 01:05:17 434.975-435.025
QB50P2 06 May 01:01:55 01:05:44 33° 288° (WNW) 01:09:31 145.880/145.840
POLYITAN 1 06 May 01:04:09 01:07:56 33° 288° (WNW) 01:11:42 437.675
POPSAT HIP 1 06 May 01:05:48 01:09:34 32° 288° (WNW) 01:13:20 437.405
Cosmos 2499 06 May 01:07:14 01:14:15 70° 94° (E) 01:21:19 435.465 / 435.565
QB50P1 06 May 01:08:45 01:12:27 30° 289° (WNW) 01:16:06 145.935-145.965
VELOX 1 06 May 01:16:40 01:17:44 11° 268° (W) 01:18:48 145.980
Oscar 19 06 May 01:17:23 01:20:30 16° 93° (E) 01:23:37 437.125/150
DANDE 06 May 01:18:05 01:23:09 20° 72° (ENE) 01:28:40 436.750
SPROUT 06 May 01:22:03 01:25:31 24° 264° (W) 01:29:02 437.525
BUGSAT 1 06 May 01:23:44 01:27:44 46° 286° (WNW) 01:31:40 437.445
JAS-2 06 May 01:26:52 01:34:24 47° 98° (E) 01:41:41 435.910
PCSat 06 May 01:28:37 01:33:39 40° 250° (WSW) 01:38:40 145.827
GONETS M04 06 May 01:30:20 01:38:45 48° 282° (WNW) 01:47:14
RS-15 06 May 01:38:15 01:44:08 14° 348° (NNW) 01:50:08 29.354- 29.394
ITUPSAT 1 06 May 01:41:32 01:45:25 25° 69° (ENE) 01:49:17 437.325
TISAT 1 06 May 01:42:11 01:46:17 48° 260° (W) 01:50:25 437.305
NANOSAT C BR1 06 May 01:42:58 01:45:02 13° 294° (WNW) 01:47:05 145.865
CUSAT 1 06 May 01:45:01 01:52:37 60° 79° (E) 02:00:32 437.405
SWISSCUBE 06 May 01:48:35 01:52:50 34° 71° (ENE) 01:57:06 437.505
BEESAT 06 May 02:20:48 02:25:31 70° 75° (ENE) 02:30:15 436.000
BEESAT 3 06 May 02:27:15 02:30:43 28° 55° (NE) 02:34:09 437.485
BEESAT 2 06 May 02:41:34 02:44:52 24° 53° (NE) 02:48:08 435.950
ITAMSAT 1 06 May 02:43:24 02:46:47 17° 94° (E) 02:50:09 435.822/435.867
Oscar 19 06 May 02:55:03 03:00:04 51° 287° (WNW) 03:05:04 437.125/150
DANDE 06 May 02:59:05 03:06:20 79° 264° (W) 03:14:42 436.750
Cosmos 2499 06 May 03:03:52 03:08:02 16° 291° (WNW) 03:12:14 435.465 / 435.565
AO-7 06 May 03:06:38 03:10:24 14° 91° (E) 03:14:10 29.400- 29.500
JAS-2 06 May 03:12:12 03:19:03 35° 294° (WNW) 03:25:47 435.910
Gurwin Techsat 1B 06 May 03:17:53 03:23:13 80° 284° (WNW) 03:28:31 435.225
ITUPSAT 1 06 May 03:19:02 03:23:06 28° 263° (W) 03:27:11 437.325
SWISSCUBE 06 May 03:27:09 03:30:39 20° 265° (W) 03:34:11 437.505
CUSAT 1 06 May 03:28:05 03:34:17 27° 273° (W) 03:40:41 437.405
KKS-1 06 May 03:28:09 03:32:23 42° 72° (ENE) 03:36:36 437.445
STARS 06 May 03:35:40 03:39:19 26° 70° (ENE) 03:42:58 437.465
RS-15 06 May 03:55:44 04:03:55 20° 27° (NNE) 04:12:09 29.354- 29.394
MOZHAYETS 4 06 May 03:57:12 04:01:39 55° 75° (ENE) 04:06:07
BEESAT 3 06 May 04:05:23 04:08:13 19° 249° (WSW) 04:11:01 437.485
YUBILEINY 06 May 04:07:51 04:09:09 10° 62° (ENE) 04:10:27 435.215
BEESAT 2 06 May 04:19:24 04:22:36 23° 248° (WSW) 04:25:47 435.950
ITAMSAT 1 06 May 04:21:29 04:26:26 47° 288° (WNW) 04:31:24 435.822/435.867
AIST 2 06 May 04:42:36 04:46:21 33° 55° (NE) 04:50:06 435.215
DANDE 06 May 04:45:20 04:48:27 13° 276° (W) 04:51:43 436.750
HORYU 2 06 May 04:50:18 04:53:33 20° 95° (E) 04:56:47 437.375
Cosmos 2491 06 May 04:51:21 04:52:44 10° 76° (ENE) 04:54:08 435.465 / 435.565
AO-7 06 May 04:55:43 05:04:06 85° 107° (ESE) 05:12:28 29.400- 29.500
KKS-1 06 May 05:06:34 05:09:05 15° 266° (W) 05:11:37 437.445
STARS 06 May 05:11:58 05:15:34 24° 264° (W) 05:19:11 437.465
ISS 06 May 05:14:35 05:17:25 28° 131° (SE) 05:20:16 145.825
MOZHAYETS 4 06 May 05:37:40 05:39:07 11° 268° (W) 05:40:33
CUBESAT XI-V 06 May 05:52:09 05:56:44 78° 258° (WSW) 06:01:23 437.345
YUBILEINY 06 May 05:58:56 06:07:38 69° 82° (E) 06:16:18 435.215
RS-15 06 May 06:07:44 06:19:52 59° 55° (NE) 06:31:54 29.354- 29.394
CUTE-I 06 May 06:17:36 06:21:23 20° 94° (E) 06:25:10 437.470
AIST 2 06 May 06:21:44 06:24:35 18° 250° (WSW) 06:27:25 435.215
SO-50 06 May 06:26:13 06:31:07 88° 305° (NW) 06:36:04 436.795
HORYU 2 06 May 06:26:15 06:30:06 30° 289° (WNW) 06:33:56 437.375
BRITE-PL 06 May 06:33:09 06:38:11 32° 95° (E) 06:43:00 437.365/2234.400
Cosmos 2491 06 May 06:39:08 06:47:54 73° 93° (E) 06:56:42 435.465 / 435.565
NOAA 15 06 May 06:46:35 06:51:51 60° 101° (ESE) 06:57:05 137.62
AO-7 06 May 06:50:21 06:55:51 20° 304° (NW) 07:01:22 29.400- 29.500
ISS 06 May 06:51:08 06:53:51 24° 326° (NW) 06:56:35 145.825
NOAA 18 06 May 07:00:49 07:06:17 70° 103° (ESE) 07:11:42 137.9125
Cubesat XI-IV 06 May 07:02:04 07:07:18 55° 100° (E) 07:12:30 437.490
STRAND 1 06 May 07:02:27 07:07:19 47° 72° (ENE) 07:12:12 437.568
DOVE 4 06 May 07:05:10 07:07:10 12° 90° (E) 07:09:07 437.250
Cosmos 2504 06 May 07:06:18 07:13:47 48° 79° (E) 07:21:46 435.465 / 435.565
GOMX 1 06 May 07:25:37 07:30:48 49° 98° (E) 07:35:40 467.674
LilacSat-2 06 May 07:38:42 07:42:21 45° 285° (WNW) 07:45:57 437.200
CANX-2 06 May 07:51:15 07:51:56 10° 91° (E) 07:52:37 2200.000
CUTE-I 06 May 07:56:33 08:01:34 44° 289° (WNW) 08:06:35 437.470
YUBILEINY 06 May 07:57:28 08:03:31 21° 279° (W) 08:09:36 435.215
PHONESAT 2.4 06 May 08:09:56 08:12:58 49° 152° (SSE) 08:16:01 2401.200-2431.200
SO-50 06 May 08:10:25 08:12:18 12° 316° (NW) 08:14:11 436.795
BRITE-PL 06 May 08:11:35 08:16:29 31° 291° (WNW) 08:21:15 437.365/2234.400
M-CUBED/EXP-1 PRIME 06 May 08:13:53 08:17:38 80° 107° (ESE) 08:21:06 437.505
RS-15 06 May 08:20:55 08:31:50 40° 254° (WSW) 08:42:42 29.354- 29.394
CUTE 1.7 + AOD 2 06 May 08:20:56 08:24:14 22° 95° (E) 08:27:32 437.475
NOAA 15 06 May 08:28:03 08:31:04 16° 296° (WNW) 08:34:05 137.62
AUBIESAT-1 06 May 08:29:09 08:32:52 79° 288° (WNW) 08:36:18 437.475
COMPASS 1 06 May 08:37:54 08:40:41 17° 94° (E) 08:43:28 437.405
Cosmos 2491 06 May 08:39:14 08:45:30 21° 291° (WNW) 08:51:51 435.465 / 435.565
DOVE 4 06 May 08:40:22 08:45:18 57° 286° (WNW) 08:49:54 437.250
SEEDS 06 May 08:40:59 08:44:34 27° 96° (E) 08:48:09 437.485
STRAND 1 06 May 08:43:31 08:46:41 17° 266° (W) 08:49:53 437.568
NOAA 18 06 May 08:43:35 08:46:17 14° 298° (WNW) 08:48:58 137.9125
Cubesat XI-IV 06 May 08:43:36 08:46:53 17° 296° (WNW) 08:50:10 437.490
PRISM 06 May 08:47:24 08:51:25 61° 259° (W) 08:55:28 437.425
CINEMA 3 06 May 08:55:42 09:00:10 61° 100° (E) 09:04:24 145.822/145.860
Cosmos 2504 06 May 09:00:19 09:06:47 29° 274° (W) 09:13:38 435.465 / 435.565
HO-68 06 May 09:02:30 09:09:38 68° 103° (ESE) 09:16:44 435.675
UWE-3 06 May 09:02:55 09:04:51 13° 92° (E) 09:06:45 435.000/436.395/437.385
AAUSAT CUBESAT 2 06 May 09:04:12 09:07:48 28° 97° (E) 09:11:24 437.432
GOMX 1 06 May 09:04:48 09:08:21 18° 295° (WNW) 09:11:48 467.674
CUBEBUG 2 06 May 09:17:08 09:20:52 29° 97° (E) 09:24:30 437.445
CANX-2 06 May 09:23:56 09:28:03 52° 285° (WNW) 09:32:10 2200.000
ZACube-1 06 May 09:24:17 09:26:45 15° 93° (E) 09:29:11 437.345
ANTELSAT 06 May 09:31:56 09:34:41 16° 67° (ENE) 09:37:23 437.575/2403.000
PHONESAT 2.4 06 May 09:46:54 09:49:52 38° 347° (NNW) 09:52:51 2401.200-2431.200
DELFI C3 06 May 09:46:55 09:49:16 15° 94° (E) 09:51:35 145.870
GONETS M04 06 May 09:51:35 09:54:33 12° 63° (ENE) 09:57:31
CUTE 1.7 + AOD 2 06 May 09:56:32 10:00:00 25° 289° (WNW) 10:03:27 437.475
Oscar 11 06 May 09:57:18 10:01:28 47° 99° (E) 10:05:37 145.826/435.025
COMPASS 1 06 May 10:12:35 10:16:16 31° 288° (WNW) 10:19:57 437.405
FUNcube-1 06 May 10:14:36 10:18:43 61° 101° (E) 10:22:47 145.935
SEEDS 06 May 10:16:59 10:20:05 20° 290° (WNW) 10:23:11 437.485
AIST 1 06 May 10:21:55 10:23:31 12° 72° (ENE) 10:25:06
UNISAT 6 06 May 10:24:17 10:28:51 61° 75° (ENE) 10:33:22 437.425
CINEMA 3 06 May 10:35:39 10:36:39 11° 296° (WNW) 10:37:39 145.822/145.860
UWE-3 06 May 10:37:34 10:41:30 40° 287° (WNW) 10:45:21 435.000/436.395/437.385
AAUSAT CUBESAT 2 06 May 10:40:07 10:43:04 19° 291° (WNW) 10:46:01 437.432
TIGRISAT 06 May 10:40:20 10:45:00 87° 72° (ENE) 10:49:34 435.000
HO-68 06 May 10:51:37 10:56:40 21° 299° (WNW) 11:01:43 435.675
CUBEBUG 2 06 May 10:54:19 10:57:15 18° 292° (WNW) 11:00:08 437.445
NANOSAT C BR1 06 May 10:55:11 10:58:28 22° 69° (ENE) 11:01:45 145.865
ZACube-1 06 May 10:59:22 11:03:08 33° 287° (WNW) 11:06:51 437.345
Cosmos 2499 06 May 11:01:52 11:07:33 21° 71° (ENE) 11:13:29 435.465 / 435.565
ANTELSAT 06 May 11:06:34 11:11:00 44° 261° (W) 11:15:23 437.575/2403.000
DELFI C3 06 May 11:20:37 11:24:11 32° 287° (WNW) 11:27:46 145.870
PHONESAT 2.4 06 May 11:24:19 11:27:08 29° 4° (N) 11:29:57 2401.200-2431.200
HUMSAT D 06 May 11:27:49 11:31:53 69° 283° (WNW) 11:35:56 437.325/437.525
VELOX 1 06 May 11:31:40 11:33:55 14° 93° (E) 11:36:09 145.980
Oscar 11 06 May 11:35:12 11:37:09 13° 294° (WNW) 11:39:06 145.826/435.025
JAS-2 06 May 11:39:07 11:41:51 13° 56° (ENE) 11:44:42 435.910
GONETS M04 06 May 11:44:09 11:52:55 75° 82° (E) 12:01:35
DUCHIFAT 1 06 May 11:44:31 11:48:46 82° 77° (ENE) 11:53:03 145.980
50 SAT 06 May 11:44:33 11:47:19 20° 96° (E) 11:50:05 437.505
ISS 06 May 11:45:35 11:47:08 13° 26° (NNE) 11:48:41 145.825
AO-85 06 May 11:47:42 11:53:07 76° 117° (ESE) 11:58:34 145.980
QB50P2 06 May 11:50:34 11:54:50 72° 259° (W) 11:59:07 145.880/145.840
POLYITAN 1 06 May 11:52:46 11:57:03 70° 258° (WSW) 12:01:20 437.675
POPSAT HIP 1 06 May 11:54:16 11:58:32 69° 259° (W) 12:02:49 437.405
AIST 1 06 May 11:57:08 12:01:23 49° 267° (W) 12:05:36
QB50P1 06 May 11:57:08 12:01:22 63° 259° (WSW) 12:05:38 145.935-145.965
AISAT 06 May 12:02:49 12:06:53 34° 98° (E) 12:10:53 437.250
UNISAT 6 06 May 12:04:49 12:05:51 11° 268° (W) 12:06:53 437.425
BUGSAT 1 06 May 12:09:34 12:13:46 75° 76° (ENE) 12:18:02 437.445
CUBEBUG 1 06 May 12:28:01 12:32:26 65° 101° (E) 12:36:48 437.445
NANOSAT C BR1 06 May 12:30:26 12:34:01 26° 263° (W) 12:37:38 145.865
Oscar 19 06 May 12:31:17 12:34:41 18° 65° (ENE) 12:38:06 437.125/150
ESTCUBE 1 06 May 12:37:28 12:41:59 68° 284° (WNW) 12:46:29 437.505/2401.250
UKube-1 06 May 12:47:55 12:52:16 78° 104° (ESE) 12:56:35 .
DX 1 06 May 12:48:58 12:53:22 82° 285° (WNW) 12:57:45 434.975-435.025
Cosmos 2499 06 May 12:53:16 13:01:10 71° 267° (W) 13:09:39 435.465 / 435.565
Gurwin Techsat 1B 06 May 12:59:14 13:01:41 13° 63° (ENE) 13:04:08 435.225
PHONESAT 2.4 06 May 13:01:07 13:04:16 71° 22° (NNE) 13:07:24 2401.200-2431.200
O/OREOS (USA 219) 06 May 13:03:32 13:05:32 13° 98° (E) 13:07:31 437.305
VELOX 1 06 May 13:06:19 13:10:34 45° 287° (WNW) 13:14:48 145.980
SPROUT 06 May 13:10:15 13:14:33 73° 102° (ESE) 13:18:46 437.525
50 SAT 06 May 13:18:14 13:20:58 20° 289° (WNW) 13:23:42 437.505
JAS-2 06 May 13:19:38 13:25:37 88° 76° (ENE) 13:32:30 435.910
ISS 06 May 13:20:43 13:23:59 86° 220° (SW) 13:27:14 145.825
TISAT 1 06 May 13:29:31 13:33:15 31° 97° (E) 13:36:58 437.305
AO-85 06 May 13:30:45 13:34:11 17° 314° (NW) 13:37:36 145.980
AISAT 06 May 13:39:57 13:43:04 19° 292° (WNW) 13:46:11 437.250
GONETS M04 06 May 13:43:05 13:48:41 19° 280° (W) 13:54:17
SWISSCUBE 06 May 13:54:24 13:55:35 11° 92° (E) 13:56:46 437.505
ITAMSAT 1 06 May 13:58:25 14:02:07 20° 66° (ENE) 14:05:49 435.822/435.867
AO-7 06 May 14:02:41 14:07:31 17° 54° (NE) 14:12:21 29.400- 29.500
CUBEBUG 1 06 May 14:07:31 14:08:07 10° 296° (WNW) 14:08:43 437.445
Oscar 19 06 May 14:08:35 14:13:34 49° 260° (W) 14:18:36 437.125/150
PCSat 06 May 14:23:39 14:28:42 41° 110° (ESE) 14:33:46 145.827
BEESAT 06 May 14:24:49 14:28:34 23° 96° (E) 14:32:17 436.000
Gurwin Techsat 1B 06 May 14:35:42 14:40:59 69° 258° (WSW) 14:46:18 435.225
PHONESAT 2.4 06 May 14:38:32 14:40:52 19° 215° (SW) 14:43:12 2401.200-2431.200
O/OREOS (USA 219) 06 May 14:39:58 14:44:26 50° 293° (WNW) 14:48:54 437.305
CUSAT 1 06 May 14:46:37 14:50:04 53° 93° (E) 14:54:36 437.405
SO-50 06 May 15:01:15 15:05:33 34° 54° (NE) 15:09:41 436.795
TISAT 1 06 May 15:05:46 15:08:40 18° 292° (WNW) 15:11:32 437.305
JAS-2 06 May 15:10:01 15:11:43 11° 274° (W) 15:13:29 435.910
ITUPSAT 1 06 May 15:21:47 15:26:35 86° 281° (WNW) 15:31:22 437.325
KKS-1 06 May 15:25:44 15:25:58 10° 92° (E) 15:26:12 437.445
SWISSCUBE 06 May 15:29:01 15:33:44 63° 286° (WNW) 15:38:26 437.505
ITAMSAT 1 06 May 15:36:22 15:41:15 42° 261° (W) 15:46:09 435.822/435.867
HORYU 2 06 May 15:46:26 15:48:39 14° 66° (ENE) 15:50:50 437.375
AO-7 06 May 15:50:48 15:59:05 86° 72° (ENE) 16:07:26 29.400- 29.500
MOZHAYETS 4 06 May 15:56:31 15:59:27 17° 94° (E) 16:02:23
BEESAT 06 May 16:02:09 16:06:19 31° 290° (WNW) 16:10:29 436.000
PCSat 06 May 16:07:50 16:12:12 24° 306° (NW) 16:16:37 145.827
DANDE 06 May 16:08:04 16:10:48 32° 286° (WNW) 16:14:11 436.750
JUGNU 06 May 16:22:25 16:25:22 14° 170° (S) 16:28:22 437.505
SO-50 06 May 16:42:13 16:45:47 22° 250° (WSW) 16:49:15 436.795
NOAA 18 06 May 16:47:49 16:49:33 11° 61° (ENE) 16:51:16 137.9125
Cosmos 2491 06 May 16:54:20 17:01:52 31° 73° (ENE) 17:09:17 435.465 / 435.565
KKS-1 06 May 16:58:27 17:02:52 59° 285° (WNW) 17:07:13 437.445
STARS 06 May 17:03:33 17:07:57 77° 102° (ESE) 17:12:19 437.465
YUBILEINY 06 May 17:04:47 17:08:37 14° 78° (ENE) 17:12:27 435.215
HORYU 2 06 May 17:20:25 17:24:45 49° 260° (W) 17:29:05 437.375
SRMSAT 06 May 17:32:03 17:32:55 10° 165° (SSE) 17:33:49 437.500
MOZHAYETS 4 06 May 17:32:29 17:36:43 38° 287° (WNW) 17:40:57
CUTE-I 06 May 17:36:19 17:40:32 24° 67° (ENE) 17:44:44 437.470
BRITE-PL 06 May 17:40:55 17:44:51 24° 67° (ENE) 17:49:00 437.365/2234.400
AO-7 06 May 17:47:54 17:52:38 16° 267° (W) 17:57:25 29.400- 29.500
BEESAT 3 06 May 17:52:00 17:55:51 52° 302° (WNW) 17:59:43 437.485
CUBESAT XI-V 06 May 17:52:06 17:56:22 33° 97° (E) 18:00:36 437.345
NOAA 15 06 May 18:03:22 18:08:36 70° 75° (ENE) 18:13:52 137.62
BEESAT 2 06 May 18:07:31 18:11:26 63° 300° (WNW) 18:15:25 435.950
DOVE 4 06 May 18:08:20 18:09:32 11° 62° (ENE) 18:10:43 437.250
JUGNU 06 May 18:09:51 18:13:38 18° 180° (S) 18:17:26 437.505
LilacSat-2 06 May 18:17:06 18:20:51 49° 75° (ENE) 18:24:36 437.200
Cubesat XI-IV 06 May 18:20:50 18:26:07 66° 74° (ENE) 18:31:23 437.490
NOAA 18 06 May 18:23:54 18:29:25 85° 256° (WSW) 18:34:57 137.9125
GOMX 1 06 May 18:29:51 18:34:30 37° 71° (ENE) 18:39:24 467.674
AIST 2 06 May 18:38:34 18:40:53 15° 109° (ESE) 18:43:13 435.215
Cosmos 2491 06 May 18:50:32 18:58:56 51° 271° (W) 19:07:16 435.465 / 435.565
YUBILEINY 06 May 18:55:17 19:04:02 87° 95° (E) 19:12:47 435.215
M-CUBED/EXP-1 PRIME 06 May 18:56:01 19:00:41 62° 71° (ENE) 19:05:16 437.505
AUBIESAT-1 06 May 19:10:52 19:15:31 75° 72° (ENE) 19:20:04 437.475
CUTE 1.7 + AOD 2 06 May 19:12:46 19:13:54 11° 66° (ENE) 19:15:02 437.475
CUTE-I 06 May 19:15:29 19:20:21 36° 262° (W) 19:25:13 437.470
STRAND 1 06 May 19:16:53 19:20:43 21° 95° (E) 19:24:31 437.568
SRMSAT 06 May 19:17:36 19:21:20 17° 174° (S) 19:25:03 437.500
BRITE-PL 06 May 19:18:39 19:23:03 34° 264° (W) 19:27:48 437.365/2234.400
HO-68 06 May 19:27:53 19:34:15 36° 66° (ENE) 19:40:38 435.675
CUBESAT XI-V 06 May 19:29:58 19:33:30 21° 291° (WNW) 19:37:02 437.345
SEEDS 06 May 19:31:13 19:33:10 13° 67° (ENE) 19:35:07 437.485
DOVE 4 06 May 19:41:14 19:46:22 85° 257° (WSW) 19:51:42 437.250
Cosmos 2504 06 May 19:41:47 19:48:27 41° 89° (E) 19:55:03 435.465 / 435.565
NOAA 15 06 May 19:47:00 19:48:49 12° 269° (W) 19:50:37 137.62
AAUSAT CUBESAT 2 06 May 19:53:00 19:54:54 13° 67° (ENE) 19:56:48 437.432
CINEMA 3 06 May 19:53:14 19:57:54 40° 73° (ENE) 20:02:34 145.822/145.860
JUGNU 06 May 19:58:56 20:01:54 14° 190° (S) 20:04:53 437.505
Cubesat XI-IV 06 May 20:04:21 20:06:35 13° 268° (W) 20:08:48 437.490
GOMX 1 06 May 20:08:39 20:12:38 23° 267° (W) 20:16:48 467.674
CUBEBUG 2 06 May 20:12:16 20:15:39 20° 69° (ENE) 20:19:01 437.445
CANX-2 06 May 20:13:05 20:17:16 70° 77° (ENE) 20:21:27 2200.000
AIST 2 06 May 20:15:07 20:19:00 40° 303° (WNW) 20:22:56 435.215
AO-85 06 May 20:23:55 20:27:53 26° 51° (NE) 20:31:34 145.980
RS-15 06 May 20:27:03 20:37:33 49° 108° (ESE) 20:48:32 29.354- 29.394
PRISM 06 May 20:32:39 20:35:57 22° 96° (E) 20:39:13 437.425
M-CUBED/EXP-1 PRIME 06 May 20:33:41 20:35:27 12° 263° (W) 20:37:12 437.505
CUTE 1.7 + AOD 2 06 May 20:45:07 20:49:15 53° 260° (W) 20:53:22 437.475
Oscar 11 06 May 20:49:17 20:52:47 25° 70° (ENE) 20:56:17 145.826/435.025
STRAND 1 06 May 20:55:15 20:59:57 38° 289° (WNW) 21:04:40 437.568
YUBILEINY 06 May 20:56:45 21:01:54 17° 294° (WNW) 21:07:04 435.215
COMPASS 1 06 May 20:59:26 21:03:32 73° 258° (WSW) 21:07:41 437.405
SEEDS 06 May 21:04:30 21:08:27 43° 261° (W) 21:12:26 437.485
SRMSAT 06 May 21:05:57 21:09:47 17° 185° (S) 21:13:36 437.500
FUNcube-1 06 May 21:06:46 21:10:47 33° 72° (ENE) 21:14:44 145.935
HO-68 06 May 21:15:18 21:21:50 38° 261° (W) 21:28:24 435.675
AAUSAT CUBESAT 2 06 May 21:26:06 21:30:00 42° 261° (W) 21:33:54 437.432
UWE-3 06 May 21:30:18 21:34:56 80° 259° (W) 21:39:29 435.000/436.395/437.385
CINEMA 3 06 May 21:31:32 21:35:06 19° 266° (W) 21:38:42 145.822/145.860
Cosmos 2504 06 May 21:35:47 21:41:52 29° 286° (WNW) 21:47:56 435.465 / 435.565
CUBEBUG 2 06 May 21:47:40 21:52:00 35° 262° (W) 21:56:17 437.445
ZACube-1 06 May 21:50:57 21:55:27 70° 259° (W) 21:59:53 437.345
DELFI C3 06 May 22:02:48 22:06:43 88° 79° (ENE) 22:10:41 145.870
AO-85 06 May 22:04:26 22:08:16 27° 250° (WSW) 22:11:48 145.980
PRISM 06 May 22:07:46 22:11:10 24° 290° (WNW) 22:14:33 437.425
HUMSAT D 06 May 22:15:36 22:19:41 50° 75° (ENE) 22:23:44 437.325/437.525
UNISAT 6 06 May 22:20:50 22:23:16 15° 93° (E) 22:25:41 437.425
Oscar 11 06 May 22:25:22 22:28:49 23° 264° (W) 22:32:17 145.826/435.025
TIGRISAT 06 May 22:36:03 22:39:19 21° 95° (E) 22:42:34 435.000
RS-15 06 May 22:39:13 22:49:56 47° 310° (NW) 23:01:19 29.354- 29.394
FUNcube-1 06 May 22:43:51 22:47:02 19° 265° (W) 22:50:10 145.935
GONETS M04 06 May 22:49:01 22:53:46 16° 79° (ENE) 22:58:30
SRMSAT 06 May 22:56:22 22:58:12 11° 194° (SSW) 23:00:02 437.500
AISAT 06 May 22:57:36 23:00:56 21° 68° (ENE) 23:04:17 437.250
ANTELSAT 06 May 23:01:30 23:05:38 46° 99° (E) 23:09:42 437.575/2403.000
O/OREOS (USA 219) 06 May 23:15:16 23:17:58 15° 59° (ENE) 23:20:39 437.305
PCSat 06 May 23:15:23 23:19:10 19° 51° (NE) 23:22:55 145.827
CUBEBUG 1 06 May 23:20:50 23:24:48 35° 72° (ENE) 23:28:49 437.445
DUCHIFAT 1 06 May 23:33:12 23:35:49 16° 94° (E) 23:38:24 145.980
ESTCUBE 1 06 May 23:33:29 23:37:56 74° 77° (ENE) 23:42:26 437.505/2401.250
Cosmos 2499 06 May 23:38:09 23:41:30 14° 81° (E) 23:44:50 435.465 / 435.565
UKube-1 06 May 23:39:13 23:43:16 41° 73° (ENE) 23:47:21 .
QB50P2 06 May 23:39:24 23:42:46 23° 96° (E) 23:46:06 145.880/145.840
DX 1 06 May 23:41:02 23:45:17 55° 74° (ENE) 23:49:36 434.975-435.025
POLYITAN 1 06 May 23:41:37 23:45:00 23° 96° (E) 23:48:20 437.675
POPSAT HIP 1 06 May 23:42:56 23:46:20 23° 96° (E) 23:49:42 437.405
QB50P1 06 May 23:45:37 23:49:08 25° 97° (E) 23:52:37 145.935-145.965
HUMSAT D 06 May 23:54:43 23:55:32 10° 268° (W) 23:56:20 437.325/437.525
